Regional Weather Roundup
Issued by NWS

Home | Current Version | Previous Version | Text Only | Print | Product List | Glossary Off
Versions: 1 2 3 4 5 6 7 8 9 10 11 12 13 14 15 16 17 18 19 20 21 22 23 24 25 26 27 28 29 30 31 32 33 34 35 36 37 38 39 40 41 42 43 44 45 46 47 48 49 50

000
ASUS45 KBOU 261107
RWRCO

WEATHER ROUNDUP FOR COLORADO
NATIONAL WEATHER SERVICE DENVER/BOULDER CO
500 AM MDT TUE AUG 26 2014

NOTE: "FAIR" INDICATES FEW OR NO CLOUDS BELOW 12000 FEET WITH NO
SIGNIFICANT WEATHER AND/OR OBSTRUCTIONS TO VISIBILITY.

COZ001>005-013-030-031-261200-
...NORTHWEST COLORADO...

CITY           SKY/WX    TMP DP  RH WIND       PRES   REMARKS
CRAIG          PTCLDY    52  47  83 NE5       30.22S
HAYDEN         NOT AVBL
MEEKER         PTCLDY    52  46  80 E6        30.22S
MOUNT WERNER   NOT AVBL
STEAMBOAT SPGS PTCLDY    47  45  91 CALM      30.27R
WALDEN         PTCLDY    41  37  87 S5        30.34S
$$

COZ006>008-011-261200-
...WEST CENTRAL VALLEYS...

CITY           SKY/WX    TMP DP  RH WIND       PRES   REMARKS
GRAND JUNCTION CLOUDY    62  53  72 CALM      30.10R
MONTROSE       MOCLDY    63  45  51 S6        30.20R
EAGLE          PTCLDY    48  45  87 E6        30.28R
RIFLE          MOCLDY    54  50  86 CALM      30.18R
DELTA          MOCLDY    63  48  57 NE7       30.15S
NUCLA          MOCLDY    63  43  48 E9        30.23R
$$

COZ017>023-064>068-261200-
...SOUTHWEST COLORADO...

CITY           SKY/WX    TMP DP  RH WIND       PRES   REMARKS
DURANGO        MOCLDY    52  43  71 N5        30.26R
CORTEZ         CLEAR     52  45  77 CALM      30.21S
PAGOSA SPRINGS MOCLDY    55  41  59 CALM      30.34S
TELLURIDE      MOCLDY    54  39  58 SE5       30.41R
WOLF CREEK PAS NOT AVBL
$$

COZ009-010-012-014-032>034-037-058>063-261200-
...CENTRAL COLORADO...

CITY           SKY/WX    TMP DP  RH WIND       PRES   REMARKS
ASPEN          MOCLDY    49  41  74 CALM      30.30R
BUENA VISTA    PTCLDY    46  40  78 NW3       30.37S
COPPER MTN     MOCLDY    50  34  53 S18       30.59R
BERTHOUD PASS  FAIR      39  37  93 CALM      30.63R
COTTONWOOD PAS PTCLDY    54  39  58 CALM      30.46F
GUNNISON       MOCLDY    45  39  81 CALM      30.37R
KREMMLING      PTCLDY    43  37  81 CALM      30.32S
LEADVILLE      PTCLDY    36  35  96 CALM      30.46R
MONARCH PASS   PTCLDY    45  34  65 S7        30.69S
SALIDA         PTCLDY    49  47  95 CALM      30.42
SUNLIGHT       PTCLDY    46  37  71 CALM      30.49S
WILKERSON PASS NOT AVBL
$$

COZ069>075-261200-
...SAN LUIS VALLEY/SANGRE DE CRISTO MOUNTAINS...

CITY           SKY/WX    TMP DP  RH WIND       PRES   REMARKS
ALAMOSA        MOCLDY    56  47  71 N3        30.32R
LA VETA PASS   NOT AVBL
SAGUACHE       CLOUDY    50  39  66 NW7       30.35S
$$

COZ035-036-038>040-261200-
...NORTHERN COLORADO FRONT RANGE...

CITY           SKY/WX    TMP DP  RH WIND       PRES   REMARKS
DENVER INTL AP CLOUDY    59  55  87 SE16      30.21R
DMNS CITY PARK   N/A     59  57  94 SE5       30.23R
AURORA         PTCLDY    57  57  99 SE15      30.24R
FRONT RANGE AP CLOUDY    61  57  88 SE14      30.23F
ERIE MUNI ARPT CLOUDY    59  56  90 CALM      30.22R
BOULDER MUN AP MOCLDY    57  54  88 CALM      30.22R
CENTENNIAL     MOCLDY    58  56  93 SE10      30.24R
BROOMFIELD     CLOUDY    61  57  88 SE5       30.24R
FORT COLLINS   CLOUDY    57  54  88 N5        30.22R
LONGMONT       MOCLDY    60  55  83 CALM      30.22S
$$

COZ041-046-047-076>085-087-088-261200-
...PIKES PEAK/PALMER DIVIDE AND SOUTHERN FOOTHILLS...

CITY           SKY/WX    TMP DP  RH WIND       PRES   REMARKS
COLO. SPRINGS  CLOUDY    59  54  83 E9        30.31R
A. F. ACADEMY  MOCLDY    58  54  86 SE12      30.30R
ELLICOTT       MOCLDY    55  54  96 E7        30.28R
FALCON         CLOUDY    55  54  96 SE6       30.34R
FORT CARSON    NOT AVBL
LIMON          PTCLDY    55  54  96 CALM      30.26R
MONUMENT HILL  CLOUDY    54  52  94 SE8       30.33R
TRINIDAD       CLOUDY    63  53  70 NW9       30.22R
$$

COZ042>045-048>051-090-091-261200-
...NORTHEAST COLORADO...

CITY           SKY/WX    TMP DP  RH WIND       PRES   REMARKS
GREELEY ARPT   CLOUDY    57  48  72 N3        30.21R
AKRON          CLOUDY    60  55  83 CALM      30.20S
BURLINGTON     PTCLDY    58  56  93 CALM      30.18S
WRAY           HVY RAIN  64  61  92 CALM      30.17R
STERLING       LGT RAIN  64  59  82 W16       30.14R
HOLYOKE        NOT AVBL
FORT MORGAN    CLOUDY    58  55  87 SW8       30.20R
$$

COZ086-089-092>099-261200-
...SOUTHEAST COLORADO...

CITY           SKY/WX    TMP DP  RH WIND       PRES   REMARKS
PUEBLO         CLOUDY    64  56  75 SE13      30.21R
LA JUNTA       CLOUDY    64  59  83 E16       30.15S
LAMAR          CLEAR     62  58  86 E8        30.12S
SPRINGFIELD      N/A     60  59  96 E3        30.16S
$$



USA.gov is the U.S. government's official web portal to all federal, state and local government web resources and services.